| time (UTC) | temp F | wind direction | speed MPH | gust MPH | rain 1hr in | rain 24hr in | rain mn in | humidity % | barometer mb |
| 20260903222356 | 66 | 253 | 1.0 | 1.0 | 0.00 | 0.01 | 0.01 | 67 | 1009.7 |
| 20260903221851 | 65 | 248 | 0.0 | 0.0 | 0.00 | 0.01 | 0.01 | 68 | 1009.9 |
| 20260903221350 | 65 | 277 | 0.0 | 0.0 | 0.00 | 0.01 | 0.01 | 68 | 1009.7 |
| 20260903220848 | 64 | 231 | 1.0 | 2.0 | 0.00 | 0.01 | 0.01 | 69 | 1009.8 |
| 20260903220343 | 65 | 246 | 0.0 | 0.0 | 0.00 | 0.01 | 0.01 | 68 | 1009.7 |
| 20260903215841 | 65 | 215 | 2.0 | 5.0 | 0.00 | 0.01 | 0.01 | 66 | 1010.0 |
| 20260903215338 | 65 | 233 | 0.0 | 0.0 | 0.00 | 0.01 | 0.01 | 66 | 1010.0 |
| 20260903214835 | 65 | 183 | 3.0 | 3.0 | 0.00 | 0.01 | 0.01 | 68 | 1009.7 |
| 20260903214332 | 65 | 283 | 1.0 | 2.0 | 0.00 | 0.01 | 0.01 | 68 | 1009.8 |
| 20260903213826 | 65 | 293 | 4.0 | 6.0 | 0.00 | 0.01 | 0.01 | 67 | 1009.5 |
| 20260903213321 | 65 | 247 | 2.0 | 8.0 | 0.00 | 0.01 | 0.01 | 66 | 1009.8 |
| 20260903212817 | 64 | 207 | 8.0 | 9.0 | 0.00 | 0.01 | 0.01 | 68 | 1009.8 |
| 20260903212314 | 64 | 223 | 4.0 | 5.0 | 0.00 | 0.01 | 0.01 | 69 | 1009.8 |
| 20260903211813 | 64 | 221 | 1.0 | 2.0 | 0.00 | 0.01 | 0.01 | 69 | 1009.6 |
| 20260903211309 | 64 | 147 | 2.0 | 2.0 | 0.00 | 0.01 | 0.01 | 69 | 1009.8 |
| 20260903210805 | 64 | 253 | 1.0 | 2.0 | 0.00 | 0.01 | 0.01 | 69 | 1009.8 |
| 20260903210259 | 64 | 248 | 2.0 | 5.0 | 0.00 | 0.01 | 0.01 | 68 | 1009.5 |
| 20260903205754 | 64 | 206 | 2.0 | 5.0 | 0.00 | 0.01 | 0.01 | 68 | 1009.7 |
| 20260903205254 | 63 | 238 | 3.0 | 5.0 | 0.00 | 0.01 | 0.01 | 69 | 1009.4 |
| 20260903204749 | 63 | 192 | 4.0 | 6.0 | 0.00 | 0.01 | 0.01 | 70 | 1009.5 |
| 20260903204245 | 63 | 206 | 3.0 | 7.0 | 0.00 | 0.01 | 0.01 | 70 | 1009.7 |
| 20260903203740 | 63 | 240 | 3.0 | 3.0 | 0.00 | 0.01 | 0.01 | 69 | 1009.6 |
| 20260903203236 | 63 | 258 | 1.0 | 2.0 | 0.00 | 0.01 | 0.01 | 70 | 1009.7 |
| 20260903202735 | 64 | 199 | 9.0 | 10.0 | 0.00 | 0.01 | 0.01 | 69 | 1009.8 |
| 20260903202231 | 64 | 216 | 6.0 | 8.0 | 0.00 | 0.01 | 0.01 | 69 | 1009.4 |
| 20260903201730 | 64 | 275 | 1.0 | 3.0 | 0.00 | 0.01 | 0.01 | 69 | 1009.4 |
| 20260903201226 | 65 | 226 | 4.0 | 6.0 | 0.00 | 0.01 | 0.01 | 66 | 1009.5 |
| 20260903200725 | 66 | 182 | 3.0 | 5.0 | 0.00 | 0.01 | 0.01 | 65 | 1009.6 |
| 20260903200220 | 66 | 216 | 5.0 | 6.0 | 0.00 | 0.01 | 0.01 | 65 | 1009.5 |
| 20260903195716 | 64 | 179 | 0.0 | 1.0 | 0.00 | 0.01 | 0.01 | 68 | 1009.5 |
| 20260903195212 | 63 | 224 | 3.0 | 3.0 | 0.00 | 0.01 | 0.01 | 71 | 1009.7 |
| 20260903194711 | 62 | 201 | 0.0 | 1.0 | 0.00 | 0.01 | 0.01 | 71 | 1009.6 |
| 20260903194207 | 62 | 187 | 0.0 | 0.0 | 0.00 | 0.01 | 0.01 | 72 | 1009.5 |
| 20260903193703 | 62 | 205 | 5.0 | 6.0 | 0.00 | 0.01 | 0.01 | 72 | 1009.6 |
| 20260903193203 | 63 | 225 | 4.0 | 7.0 | 0.00 | 0.01 | 0.01 | 71 | 1009.7 |
| 20260903192659 | 63 | 191 | 4.0 | 6.0 | 0.00 | 0.01 | 0.01 | 71 | 1009.6 |
| 20260903192154 | 63 | 218 | 6.0 | 7.0 | 0.00 | 0.01 | 0.01 | 70 | 1009.3 |
| 20260903191650 | 63 | 225 | 5.0 | 6.0 | 0.00 | 0.01 | 0.01 | 71 | 1009.4 |
| 20260903191150 | 63 | 224 | 6.0 | 7.0 | 0.00 | 0.01 | 0.01 | 71 | 1009.4 |
| 20260903190645 | 62 | 191 | 7.0 | 9.0 | 0.00 | 0.01 | 0.01 | 73 | 1009.4 |
| 20260903190139 | 62 | 204 | 7.0 | 9.0 | 0.00 | 0.01 | 0.01 | 72 | 1009.3 |
| 20260903185634 | 62 | 243 | 4.0 | 7.0 | 0.00 | 0.01 | 0.01 | 72 | 1009.3 |
| 20260903185129 | 62 | 211 | 2.0 | 5.0 | 0.00 | 0.01 | 0.01 | 71 | 1009.6 |
| 20260903184626 | 63 | 247 | 3.0 | 7.0 | 0.00 | 0.01 | 0.01 | 70 | 1009.4 |
| 20260903184122 | 61 | 183 | 6.0 | 7.0 | 0.00 | 0.01 | 0.01 | 72 | 1009.3 |
| 20260903183620 | 61 | 210 | 8.0 | 9.0 | 0.00 | 0.01 | 0.01 | 73 | 1009.3 |
| 20260903183115 | 61 | 207 | 5.0 | 7.0 | 0.00 | 0.01 | 0.01 | 73 | 1009.3 |
| 20260903182614 | 60 | 206 | 8.0 | 10.0 | 0.00 | 0.01 | 0.01 | 73 | 1009.4 |
| 20260903182110 | 60 | 164 | 8.0 | 11.0 | 0.00 | 0.01 | 0.01 | 73 | 1009.2 |
| 20260903181608 | 61 | 212 | 10.0 | 11.0 | 0.00 | 0.01 | 0.01 | 72 | 1009.3 |
| 20260903181103 | 61 | 186 | 6.0 | 7.0 | 0.00 | 0.01 | 0.01 | 73 | 1009.2 |
| 20260903180558 | 61 | 232 | 9.0 | 11.0 | 0.00 | 0.01 | 0.01 | 74 | 1009.2 |
| 20260903180053 | 62 | 192 | 9.0 | 9.0 | 0.00 | 0.01 | 0.01 | 74 | 1009.0 |
| 20260903175552 | 62 | 208 | 6.0 | 8.0 | 0.00 | 0.01 | 0.01 | 74 | 1009.2 |
| 20260903175052 | 62 | 203 | 2.0 | 2.0 | 0.00 | 0.01 | 0.01 | 75 | 1009.3 |
| 20260903174546 | 61 | 183 | 10.0 | 10.0 | 0.00 | 0.01 | 0.01 | 75 | 1009.2 |
| 20260903174041 | 62 | 209 | 3.0 | 5.0 | 0.00 | 0.01 | 0.01 | 74 | 1009.1 |
| 20260903173536 | 60 | 166 | 5.0 | 7.0 | 0.00 | 0.01 | 0.01 | 76 | 1009.0 |
| 20260903173032 | 60 | 171 | 5.0 | 7.0 | 0.00 | 0.01 | 0.01 | 77 | 1009.2 |
| 20260903172527 | 61 | 177 | 10.0 | 11.0 | 0.00 | 0.01 | 0.01 | 74 | 1009.0 |
| 20260903172023 | 61 | 183 | 2.0 | 2.0 | 0.00 | 0.01 | 0.01 | 74 | 1009.1 |
| 20260903171517 | 61 | 163 | 3.0 | 5.0 | 0.00 | 0.01 | 0.01 | 74 | 1008.9 |
| 20260903171013 | 61 | 209 | 9.0 | 10.0 | 0.00 | 0.01 | 0.01 | 74 | 1009.0 |
| 20260903170511 | 61 | 187 | 5.0 | 9.0 | 0.00 | 0.01 | 0.01 | 74 | 1009.0 |
| 20260903170007 | 61 | 217 | 3.0 | 5.0 | 0.00 | 0.01 | 0.01 | 74 | 1009.1 |
| 20260903165459 | 60 | 189 | 3.0 | 5.0 | 0.00 | 0.01 | 0.01 | 74 | 1008.8 |
| 20260903164955 | 60 | 207 | 7.0 | 7.0 | 0.00 | 0.01 | 0.01 | 76 | 1009.0 |
| 20260903164450 | 60 | 178 | 6.0 | 7.0 | 0.00 | 0.01 | 0.01 | 76 | 1008.9 |
| 20260903163949 | 59 | 177 | 11.0 | 13.0 | 0.00 | 0.01 | 0.01 | 77 | 1008.9 |
| 20260903163445 | 60 | 159 | 7.0 | 10.0 | 0.00 | 0.01 | 0.01 | 77 | 1008.9 |
| 20260903162941 | 60 | 203 | 10.0 | 11.0 | 0.00 | 0.01 | 0.01 | 76 | 1009.0 |
| 20260903162437 | 60 | 212 | 5.0 | 6.0 | 0.00 | 0.01 | 0.01 | 76 | 1009.0 |
| 20260903161933 | 60 | 182 | 8.0 | 10.0 | 0.00 | 0.01 | 0.01 | 77 | 1009.1 |
| 20260903161428 | 60 | 151 | 7.0 | 9.0 | 0.00 | 0.01 | 0.01 | 79 | 1009.1 |
| 20260903160924 | 59 | 177 | 7.0 | 8.0 | 0.00 | 0.01 | 0.01 | 79 | 1009.2 |
| 20260903160423 | 59 | 164 | 5.0 | 6.0 | 0.00 | 0.01 | 0.01 | 80 | 1008.9 |
| 20260903155921 | 59 | 160 | 7.0 | 7.0 | 0.00 | 0.01 | 0.01 | 81 | 1009.1 |
| 20260903155417 | 58 | 189 | 6.0 | 7.0 | 0.00 | 0.01 | 0.01 | 82 | 1008.9 |
| 20260903154913 | 58 | 195 | 7.0 | 9.0 | 0.00 | 0.01 | 0.01 | 83 | 1009.0 |
| 20260903154409 | 58 | 159 | 8.0 | 9.0 | 0.00 | 0.01 | 0.01 | 84 | 1008.9 |
| 20260903153909 | 58 | 212 | 2.0 | 2.0 | 0.00 | 0.01 | 0.01 | 85 | 1009.2 |
| 20260903153404 | 58 | 175 | 7.0 | 8.0 | 0.00 | 0.01 | 0.01 | 84 | 1008.8 |
| 20260903152901 | 58 | 116 | 4.0 | 7.0 | 0.00 | 0.01 | 0.01 | 84 | 1008.9 |
| 20260903152356 | 57 | 154 | 2.0 | 2.0 | 0.00 | 0.01 | 0.01 | 86 | 1008.8 |
| 20260903151852 | 57 | 194 | 7.0 | 8.0 | 0.00 | 0.01 | 0.01 | 86 | 1008.9 |
| 20260903151347 | 57 | 175 | 5.0 | 7.0 | 0.00 | 0.01 | 0.01 | 86 | 1009.0 |
| 20260903150846 | 57 | 152 | 4.0 | 5.0 | 0.00 | 0.01 | 0.01 | 85 | 1008.9 |
| 20260903150341 | 57 | 145 | 6.0 | 7.0 | 0.00 | 0.01 | 0.01 | 85 | 1009.2 |
| 20260903145836 | 56 | 142 | 3.0 | 3.0 | 0.00 | 0.01 | 0.01 | 86 | 1008.8 |
| 20260903145331 | 56 | 156 | 9.0 | 10.0 | 0.00 | 0.01 | 0.01 | 86 | 1008.9 |
| 20260903144830 | 56 | 181 | 3.0 | 6.0 | 0.00 | 0.01 | 0.01 | 86 | 1008.9 |
| 20260903144326 | 56 | 131 | 4.0 | 5.0 | 0.00 | 0.01 | 0.01 | 86 | 1008.6 |
| 20260903143821 | 57 | 187 | 6.0 | 7.0 | 0.00 | 0.01 | 0.01 | 87 | 1008.9 |
| 20260903143318 | 56 | 186 | 7.0 | 8.0 | 0.00 | 0.01 | 0.01 | 87 | 1008.6 |
| 20260903142813 | 56 | 199 | 9.0 | 10.0 | 0.00 | 0.01 | 0.01 | 88 | 1008.7 |
| 20260903142309 | 56 | 195 | 3.0 | 5.0 | 0.00 | 0.01 | 0.01 | 89 | 1008.8 |
| 20260903141805 | 56 | 148 | 5.0 | 6.0 | 0.00 | 0.01 | 0.01 | 89 | 1008.5 |
| 20260903141301 | 55 | 151 | 5.0 | 7.0 | 0.00 | 0.01 | 0.01 | 90 | 1008.7 |
| 20260903140800 | 56 | 196 | 2.0 | 2.0 | 0.00 | 0.01 | 0.01 | 90 | 1008.5 |
| 20260903140255 | 55 | 200 | 5.0 | 6.0 | 0.00 | 0.01 | 0.01 | 90 | 1008.5 |
| 20260903135751 | 55 | 171 | 3.0 | 5.0 | 0.00 | 0.01 | 0.01 | 90 | 1008.6 |
| 20260903135246 | 56 | 210 | 6.0 | 7.0 | 0.00 | 0.01 | 0.01 | 90 | 1008.4 |
| 20260903134745 | 55 | 187 | 5.0 | 8.0 | 0.00 | 0.01 | 0.01 | 89 | 1008.6 |
| 20260903134241 | 55 | 167 | 6.0 | 8.0 | 0.00 | 0.01 | 0.01 | 89 | 1008.4 |
| 20260903133738 | 55 | 173 | 9.0 | 10.0 | 0.00 | 0.01 | 0.01 | 89 | 1008.4 |
| 20260903133235 | 55 | 188 | 5.0 | 6.0 | 0.00 | 0.01 | 0.01 | 88 | 1008.3 |
| 20260903132734 | 56 | 183 | 5.0 | 6.0 | 0.00 | 0.01 | 0.01 | 88 | 1008.1 |
| 20260903132230 | 56 | 162 | 8.0 | 10.0 | 0.00 | 0.01 | 0.01 | 88 | 1008.2 |
| 20260903131725 | 56 | 169 | 5.0 | 7.0 | 0.00 | 0.01 | 0.01 | 89 | 1008.2 |
| 20260903131224 | 56 | 201 | 5.0 | 6.0 | 0.00 | 0.01 | 0.01 | 89 | 1008.1 |
| 20260903130719 | 56 | 161 | 4.0 | 6.0 | 0.00 | 0.01 | 0.01 | 89 | 1008.2 |
| 20260903130214 | 56 | 187 | 3.0 | 5.0 | 0.00 | 0.01 | 0.01 | 89 | 1008.1 |
| 20260903125712 | 56 | 148 | 4.0 | 6.0 | 0.00 | 0.01 | 0.01 | 88 | 1008.0 |
| 20260903125208 | 56 | 166 | 5.0 | 7.0 | 0.00 | 0.01 | 0.01 | 87 | 1008.0 |
| 20260903124707 | 56 | 184 | 8.0 | 9.0 | 0.00 | 0.01 | 0.01 | 86 | 1008.1 |
| 20260903124202 | 57 | 212 | 5.0 | 11.0 | 0.00 | 0.01 | 0.01 | 83 | 1008.0 |
| 20260903123701 | 57 | 208 | 13.0 | 15.0 | 0.00 | 0.01 | 0.01 | 81 | 1008.2 |
| 20260903123200 | 57 | 185 | 7.0 | 7.0 | 0.00 | 0.01 | 0.01 | 82 | 1008.0 |
| 20260903122659 | 57 | 158 | 4.0 | 5.0 | 0.00 | 0.01 | 0.01 | 82 | 1008.1 |
| 20260903122154 | 57 | 176 | 4.0 | 5.0 | 0.00 | 0.01 | 0.01 | 81 | 1008.1 |
| 20260903121653 | 57 | 189 | 6.0 | 7.0 | 0.00 | 0.01 | 0.01 | 82 | 1008.1 |
| 20260903121149 | 57 | 156 | 4.0 | 5.0 | 0.00 | 0.01 | 0.01 | 83 | 1007.9 |
| 20260903120648 | 57 | 235 | 0.0 | 0.0 | 0.00 | 0.01 | 0.01 | 83 | 1008.0 |
| 20260903120143 | 57 | 187 | 7.0 | 7.0 | 0.00 | 0.01 | 0.01 | 82 | 1008.0 |
| 20260903115641 | 57 | 179 | 4.0 | 6.0 | 0.00 | 0.01 | 0.01 | 82 | 1007.7 |
| 20260903115137 | 57 | 178 | 3.0 | 3.0 | 0.00 | 0.01 | 0.01 | 82 | 1007.8 |
| 20260903114632 | 57 | 172 | 1.0 | 2.0 | 0.00 | 0.01 | 0.01 | 82 | 1007.8 |
| 20260903114127 | 57 | 156 | 3.0 | 3.0 | 0.00 | 0.01 | 0.01 | 82 | 1007.8 |
| 20260903113622 | 57 | 124 | 3.0 | 5.0 | 0.00 | 0.01 | 0.01 | 82 | 1007.8 |
| 20260903113118 | 57 | 179 | 3.0 | 5.0 | 0.00 | 0.01 | 0.01 | 83 | 1007.8 |
| 20260903112615 | 57 | 165 | 2.0 | 3.0 | 0.00 | 0.01 | 0.01 | 83 | 1007.7 |
| 20260903112114 | 57 | 168 | 5.0 | 7.0 | 0.00 | 0.01 | 0.01 | 84 | 1007.8 |
| 20260903111613 | 57 | 209 | 3.0 | 3.0 | 0.05 | 0.01 | 0.01 | 84 | 1007.9 |
| 20260903111109 | 57 | 210 | 1.0 | 2.0 | 0.05 | 0.01 | 0.01 | 84 | 1007.7 |
| 20260903110605 | 57 | 192 | 4.0 | 5.0 | 0.00 | 0.00 | 0.00 | 83 | 1007.9 |
| 20260903110100 | 57 | 188 | 5.0 | 6.0 | 0.00 | 0.00 | 0.00 | 84 | 1007.7 |
| 20260903105554 | 57 | 198 | 3.0 | 3.0 | 0.00 | 0.00 | 0.00 | 84 | 1007.8 |
| 20260903105044 | 57 | 199 | 4.0 | 5.0 | 0.00 | 0.00 | 0.00 | 84 | 1007.8 |
| 20260903104543 | 57 | 161 | 5.0 | 6.0 | 0.00 | 0.00 | 0.00 | 83 | 1007.7 |
| 20260903104039 | 57 | 197 | 8.0 | 9.0 | 0.00 | 0.00 | 0.00 | 83 | 1007.7 |
| 20260903103535 | 57 | 160 | 9.0 | 11.0 | 0.00 | 0.00 | 0.00 | 83 | 1007.7 |
| 20260903103031 | 57 | 188 | 6.0 | 7.0 | 0.00 | 0.00 | 0.00 | 83 | 1007.8 |
| 20260903102526 | 57 | 177 | 5.0 | 6.0 | 0.00 | 0.00 | 0.00 | 83 | 1007.6 |
| 20260903102025 | 57 | 144 | 5.0 | 6.0 | 0.00 | 0.00 | 0.00 | 83 | 1007.7 |
| 20260903101520 | 57 | 147 | 4.0 | 6.0 | 0.00 | 0.00 | 0.00 | 82 | 1007.5 |
| 20260903101016 | 57 | 182 | 3.0 | 5.0 | 0.00 | 0.00 | 0.00 | 83 | 1007.6 |
| 20260903100511 | 57 | 186 | 4.0 | 5.0 | 0.00 | 0.00 | 0.00 | 82 | 1007.4 |
| 20260903100009 | 57 | 192 | 4.0 | 5.0 | 0.00 | 0.00 | 0.00 | 82 | 1007.6 |
| 20260903095502 | 57 | 183 | 6.0 | 9.0 | 0.00 | 0.00 | 0.00 | 82 | 1007.5 |
| 20260903094957 | 57 | 120 | 3.0 | 3.0 | 0.00 | 0.00 | 0.00 | 82 | 1007.8 |
| 20260903094456 | 57 | 125 | 3.0 | 5.0 | 0.00 | 0.00 | 0.00 | 82 | 1007.6 |
| 20260903093953 | 57 | 215 | 3.0 | 5.0 | 0.00 | 0.00 | 0.00 | 82 | 1007.7 |
| 20260903093448 | 57 | 202 | 6.0 | 7.0 | 0.00 | 0.00 | 0.00 | 81 | 1007.4 |
| 20260903092944 | 58 | 206 | 5.0 | 6.0 | 0.00 | 0.00 | 0.00 | 81 | 1007.6 |
| 20260903092443 | 58 | 206 | 0.0 | 1.0 | 0.00 | 0.00 | 0.00 | 81 | 1007.6 |
| 20260903091942 | 58 | 181 | 3.0 | 3.0 | 0.00 | 0.00 | 0.00 | 81 | 1007.4 |
| 20260903091440 | 58 | 198 | 5.0 | 7.0 | 0.00 | 0.00 | 0.00 | 80 | 1007.4 |
| 20260903090936 | 58 | 234 | 5.0 | 6.0 | 0.00 | 0.00 | 0.00 | 80 | 1007.5 |
| 20260903090432 | 58 | 203 | 5.0 | 7.0 | 0.00 | 0.00 | 0.00 | 80 | 1007.2 |
| 20260903085930 | 58 | 204 | 4.0 | 6.0 | 0.00 | 0.00 | 0.00 | 80 | 1007.4 |
| 20260903085428 | 58 | 197 | 8.0 | 9.0 | 0.00 | 0.00 | 0.00 | 81 | 1007.4 |
| 20260903084928 | 58 | 201 | 7.0 | 9.0 | 0.00 | 0.00 | 0.00 | 82 | 1007.3 |
| 20260903084427 | 57 | 194 | 6.0 | 7.0 | 0.00 | 0.00 | 0.00 | 84 | 1007.3 |
| 20260903083922 | 57 | 194 | 5.0 | 6.0 | 0.00 | 0.00 | 0.00 | 84 | 1007.4 |
| 20260903083419 | 57 | 188 | 5.0 | 7.0 | 0.00 | 0.00 | 0.00 | 85 | 1007.3 |
| 20260903082917 | 57 | 182 | 3.0 | 3.0 | 0.00 | 0.00 | 0.00 | 84 | 1007.4 |
| 20260903082412 | 57 | 175 | 5.0 | 6.0 | 0.00 | 0.00 | 0.00 | 84 | 1007.5 |
| 20260903081908 | 57 | 126 | 5.0 | 6.0 | 0.00 | 0.00 | 0.00 | 84 | 1007.3 |
| 20260903081403 | 57 | 184 | 3.0 | 3.0 | 0.00 | 0.00 | 0.00 | 83 | 1007.4 |
| 20260903080859 | 57 | 182 | 4.0 | 5.0 | 0.00 | 0.00 | 0.00 | 83 | 1007.5 |
| 20260903080356 | 58 | 203 | 4.0 | 5.0 | 0.00 | 0.00 | 0.00 | 83 | 1007.5 |
| 20260903075855 | 58 | 151 | 7.0 | 8.0 | 0.00 | 0.00 | 0.00 | 82 | 1007.3 |
| 20260903075351 | 58 | 189 | 7.0 | 8.0 | 0.00 | 0.00 | 0.00 | 80 | 1007.3 |
| 20260903074850 | 58 | 222 | 5.0 | 7.0 | 0.00 | 0.00 | 0.00 | 80 | 1007.1 |
| 20260903074345 | 58 | 199 | 7.0 | 9.0 | 0.00 | 0.00 | 0.00 | 81 | 1007.1 |
| 20260903073841 | 58 | 196 | 7.0 | 8.0 | 0.00 | 0.00 | 0.00 | 81 | 1007.1 |
| 20260903073335 | 58 | 180 | 10.0 | 14.0 | 0.00 | 0.00 | 0.00 | 81 | 1007.1 |
| 20260903072831 | 58 | 201 | 8.0 | 9.0 | 0.00 | 0.00 | 0.00 | 81 | 1007.2 |
| 20260903072327 | 58 | 182 | 8.0 | 9.0 | 0.00 | 0.00 | 0.00 | 80 | 1007.2 |
| 20260903071824 | 59 | 173 | 6.0 | 7.0 | 0.00 | 0.00 | 0.00 | 80 | 1007.1 |
| 20260903071320 | 59 | 201 | 9.0 | 11.0 | 0.00 | 0.00 | 0.00 | 79 | 1006.8 |
| 20260903070814 | 59 | 194 | 10.0 | 11.0 | 0.00 | 0.00 | 0.00 | 80 | 1007.0 |
| 20260903070310 | 59 | 197 | 11.0 | 16.0 | 0.00 | 0.00 | 0.00 | 80 | 1007.1 |
| 20260903065805 | 59 | 231 | 7.0 | 10.0 | 0.00 | 0.14 | 0.14 | 80 | 1006.9 |
| 20260903065306 | 58 | 160 | 9.0 | 10.0 | 0.00 | 0.14 | 0.14 | 83 | 1007.2 |
| 20260903064803 | 58 | 182 | 7.0 | 8.0 | 0.00 | 0.14 | 0.14 | 84 | 1007.2 |
| 20260903064259 | 58 | 172 | 4.0 | 5.0 | 0.00 | 0.14 | 0.14 | 84 | 1007.0 |
| 20260903063755 | 58 | 200 | 4.0 | 6.0 | 0.00 | 0.14 | 0.14 | 85 | 1007.0 |
| 20260903063249 | 58 | 199 | 5.0 | 6.0 | 0.00 | 0.14 | 0.14 | 84 | 1007.1 |
| 20260903062746 | 59 | 159 | 5.0 | 6.0 | 0.00 | 0.14 | 0.14 | 82 | 1007.1 |
| 20260903062244 | 59 | 199 | 4.0 | 5.0 | 0.00 | 0.14 | 0.14 | 81 | 1007.1 |
| 20260903061741 | 59 | 198 | 4.0 | 6.0 | 0.00 | 0.14 | 0.14 | 82 | 1007.2 |
| 20260903061233 | 59 | 201 | 7.0 | 10.0 | 0.00 | 0.14 | 0.14 | 83 | 1007.2 |
| 20260903060730 | 59 | 195 | 8.0 | 10.0 | 0.00 | 0.14 | 0.14 | 84 | 1007.1 |
| 20260903060229 | 58 | 175 | 8.0 | 9.0 | 0.00 | 0.14 | 0.14 | 85 | 1007.2 |
| 20260903055727 | 58 | 203 | 5.0 | 6.0 | 0.00 | 0.14 | 0.14 | 87 | 1007.0 |
| 20260903055226 | 58 | 199 | 7.0 | 8.0 | 0.00 | 0.14 | 0.14 | 88 | 1006.9 |
| 20260903054721 | 58 | 169 | 7.0 | 7.0 | 0.00 | 0.14 | 0.14 | 88 | 1007.1 |
| 20260903054216 | 59 | 141 | 6.0 | 8.0 | 0.00 | 0.14 | 0.14 | 87 | 1006.9 |
| 20260903053713 | 59 | 177 | 5.0 | 6.0 | 0.00 | 0.14 | 0.14 | 86 | 1006.9 |
| 20260903053207 | 59 | 203 | 5.0 | 5.0 | 0.00 | 0.14 | 0.14 | 83 | 1007.2 |
| 20260903052703 | 59 | 180 | 9.0 | 13.0 | 0.00 | 0.14 | 0.14 | 83 | 1007.0 |
| 20260903052158 | 59 | 198 | 4.0 | 5.0 | 0.00 | 0.14 | 0.14 | 81 | 1006.8 |
| 20260903051653 | 59 | 219 | 5.0 | 6.0 | 0.00 | 0.14 | 0.14 | 80 | 1007.1 |
| 20260903051149 | 59 | 178 | 11.0 | 13.0 | 0.00 | 0.14 | 0.14 | 81 | 1006.8 |
| 20260903050644 | 59 | 194 | 10.0 | 13.0 | 0.00 | 0.14 | 0.14 | 80 | 1006.9 |
| 20260903050138 | 59 | 192 | 6.0 | 9.0 | 0.00 | 0.14 | 0.14 | 79 | 1006.9 |
| 20260903045637 | 59 | 184 | 8.0 | 9.0 | 0.00 | 0.14 | 0.14 | 80 | 1006.8 |
| 20260903045134 | 59 | 199 | 10.0 | 11.0 | 0.00 | 0.14 | 0.14 | 80 | 1006.9 |
| 20260903044630 | 59 | 195 | 10.0 | 13.0 | 0.00 | 0.14 | 0.14 | 81 | 1006.9 |
| 20260903044126 | 59 | 160 | 9.0 | 11.0 | 0.00 | 0.14 | 0.14 | 81 | 1006.9 |
| 20260903043622 | 59 | 210 | 7.0 | 9.0 | 0.00 | 0.14 | 0.14 | 81 | 1006.9 |
| 20260903043121 | 59 | 212 | 9.0 | 13.0 | 0.00 | 0.14 | 0.14 | 81 | 1006.8 |
| 20260903042620 | 59 | 186 | 5.0 | 8.0 | 0.00 | 0.14 | 0.14 | 81 | 1006.8 |
| 20260903042116 | 59 | 237 | 4.0 | 7.0 | 0.00 | 0.14 | 0.14 | 82 | 1006.8 |
| 20260903041612 | 60 | 214 | 8.0 | 10.0 | 0.00 | 0.14 | 0.14 | 82 | 1006.7 |
| 20260903041108 | 60 | 177 | 5.0 | 6.0 | 0.00 | 0.14 | 0.14 | 83 | 1006.9 |
| 20260903040607 | 60 | 204 | 7.0 | 10.0 | 0.00 | 0.14 | 0.14 | 83 | 1006.7 |
| 20260903040103 | 60 | 185 | 7.0 | 8.0 | 0.00 | 0.14 | 0.14 | 84 | 1006.6 |
| 20260903035558 | 60 | 176 | 4.0 | 5.0 | 0.00 | 0.14 | 0.14 | 84 | 1006.6 |
| 20260903035054 | 60 | 189 | 7.0 | 8.0 | 0.00 | 0.14 | 0.14 | 83 | 1006.5 |
| 20260903034549 | 60 | 191 | 7.0 | 8.0 | 0.00 | 0.14 | 0.14 | 81 | 1006.4 |
| 20260903034044 | 60 | 190 | 5.0 | 6.0 | 0.00 | 0.14 | 0.14 | 80 | 1006.6 |
| 20260903033539 | 60 | 188 | 7.0 | 9.0 | 0.00 | 0.14 | 0.14 | 80 | 1006.4 |
| 20260903033035 | 60 | 195 | 8.0 | 10.0 | 0.00 | 0.14 | 0.14 | 80 | 1006.3 |
| 20260903032529 | 59 | 192 | 7.0 | 9.0 | 0.00 | 0.14 | 0.14 | 81 | 1006.2 |
| 20260903032025 | 60 | 240 | 3.0 | 3.0 | 0.00 | 0.14 | 0.14 | 81 | 1006.3 |
| 20260903031524 | 59 | 191 | 7.0 | 9.0 | 0.00 | 0.14 | 0.14 | 81 | 1006.2 |
| 20260903031020 | 59 | 180 | 5.0 | 8.0 | 0.00 | 0.14 | 0.14 | 81 | 1006.1 |
| 20260903030515 | 59 | 199 | 8.0 | 10.0 | 0.00 | 0.14 | 0.14 | 81 | 1005.9 |
| 20260903030011 | 59 | 182 | 8.0 | 9.0 | 0.00 | 0.14 | 0.14 | 82 | 1006.0 |
| 20260903025506 | 59 | 193 | 8.0 | 10.0 | 0.00 | 0.14 | 0.14 | 83 | 1005.8 |
| 20260903025002 | 59 | 197 | 6.0 | 8.0 | 0.00 | 0.14 | 0.14 | 83 | 1005.7 |
| 20260903024501 | 59 | 205 | 10.0 | 13.0 | 0.00 | 0.14 | 0.14 | 83 | 1005.6 |
| 20260903023955 | 59 | 226 | 11.0 | 14.0 | 0.00 | 0.14 | 0.14 | 83 | 1005.4 |
| 20260903023451 | 59 | 201 | 7.0 | 9.0 | 0.00 | 0.14 | 0.14 | 83 | 1005.4 |
| 20260903022946 | 59 | 206 | 10.0 | 13.0 | 0.00 | 0.14 | 0.14 | 84 | 1005.4 |
| 20260903022445 | 59 | 216 | 8.0 | 9.0 | 0.00 | 0.14 | 0.14 | 84 | 1005.3 |
| 20260903021943 | 59 | 212 | 8.0 | 9.0 | 0.00 | 0.14 | 0.14 | 84 | 1005.3 |
| 20260903021439 | 59 | 192 | 9.0 | 14.0 | 0.00 | 0.14 | 0.14 | 84 | 1005.2 |
| 20260903020935 | 60 | 199 | 11.0 | 15.0 | 0.00 | 0.14 | 0.14 | 84 | 1005.1 |
| 20260903020430 | 60 | 196 | 14.0 | 16.0 | 0.00 | 0.14 | 0.14 | 83 | 1005.3 |
| 20260903015925 | 60 | 174 | 7.0 | 9.0 | 0.00 | 0.14 | 0.14 | 83 | 1005.1 |
| 20260903015421 | 60 | 225 | 8.0 | 10.0 | 0.00 | 0.14 | 0.14 | 83 | 1005.0 |
| 20260903014915 | 60 | 188 | 6.0 | 8.0 | 0.00 | 0.14 | 0.14 | 82 | 1005.0 |
| 20260903014415 | 60 | 203 | 10.0 | 13.0 | 0.00 | 0.14 | 0.14 | 82 | 1005.0 |
| 20260903013910 | 60 | 204 | 12.0 | 14.0 | 0.00 | 0.14 | 0.14 | 83 | 1005.1 |
| 20260903013409 | 59 | 218 | 11.0 | 14.0 | 0.00 | 0.14 | 0.14 | 84 | 1004.7 |
| 20260903012909 | 60 | 194 | 14.0 | 21.0 | 0.00 | 0.14 | 0.14 | 84 | 1004.8 |
| 20260903012409 | 59 | 219 | 13.0 | 14.0 | 0.00 | 0.14 | 0.14 | 84 | 1004.7 |
| 20260903011908 | 59 | 174 | 10.0 | 11.0 | 0.00 | 0.14 | 0.14 | 86 | 1004.7 |
| 20260903011407 | 60 | 197 | 4.0 | 7.0 | 0.00 | 0.14 | 0.14 | 88 | 1004.7 |
| 20260903010903 | 59 | 193 | 14.0 | 17.0 | 0.00 | 0.14 | 0.14 | 86 | 1004.8 |
| 20260903010358 | 61 | 202 | 5.0 | 6.0 | 0.00 | 0.14 | 0.14 | 87 | 1004.5 |
| 20260903005856 | 61 | 186 | 7.0 | 9.0 | 0.00 | 0.14 | 0.14 | 87 | 1004.3 |
| 20260903005351 | 61 | 170 | 5.0 | 7.0 | 0.00 | 0.14 | 0.14 | 87 | 1004.3 |
| 20260903004849 | 61 | 155 | 9.0 | 13.0 | 0.00 | 0.14 | 0.14 | 86 | 1004.2 |
| 20260903004344 | 61 | 197 | 11.0 | 13.0 | 0.00 | 0.14 | 0.14 | 85 | 1004.2 |
| 20260903003839 | 61 | 149 | 8.0 | 9.0 | 0.00 | 0.14 | 0.14 | 86 | 1004.2 |
| 20260903003338 | 61 | 186 | 15.0 | 20.0 | 0.00 | 0.14 | 0.14 | 85 | 1004.0 |
| 20260903002833 | 61 | 204 | 11.0 | 13.0 | 0.00 | 0.14 | 0.14 | 84 | 1004.0 |
| 20260903002328 | 61 | 182 | 14.0 | 16.0 | 0.00 | 0.14 | 0.14 | 85 | 1004.0 |
| 20260903001822 | 60 | 182 | 9.0 | 11.0 | 0.00 | 0.14 | 0.14 | 89 | 1004.1 |
| 20260903001318 | 60 | 162 | 6.0 | 7.0 | 0.00 | 0.14 | 0.14 | 90 | 1003.9 |
| 20260903000818 | 60 | 177 | 10.0 | 14.0 | 0.00 | 0.14 | 0.14 | 92 | 1004.0 |
| 20260903000313 | 59 | 110 | 10.0 | 13.0 | 0.00 | 0.14 | 0.14 | 94 | 1003.9 |
| 20260902235810 | 59 | 205 | 5.0 | 7.0 | 0.00 | 0.14 | 0.14 | 95 | 1003.8 |
| 20260902235306 | 59 | 145 | 7.0 | 8.0 | 0.00 | 0.14 | 0.14 | 95 | 1004.2 |
| 20260902234800 | 59 | 167 | 6.0 | 7.0 | 0.00 | 0.14 | 0.14 | 95 | 1003.8 |
| 20260902234259 | 59 | 111 | 6.0 | 7.0 | 0.00 | 0.14 | 0.14 | 94 | 1004.0 |
| 20260902233754 | 59 | 131 | 5.0 | 8.0 | 0.00 | 0.14 | 0.14 | 94 | 1003.9 |
| 20260902233253 | 59 | 109 | 3.0 | 3.0 | 0.00 | 0.14 | 0.14 | 94 | 1003.9 |
| 20260902232752 | 59 | 115 | 5.0 | 6.0 | 0.07 | 0.14 | 0.14 | 93 | 1004.3 |
| 20260902232247 | 59 | 120 | 3.0 | 5.0 | 0.12 | 0.14 | 0.14 | 94 | 1004.4 |
| 20260902231746 | 59 | 187 | 4.0 | 6.0 | 0.12 | 0.13 | 0.13 | 93 | 1004.4 |
| 20260902231241 | 59 | 194 | 7.0 | 7.0 | 0.12 | 0.12 | 0.12 | 92 | 1004.6 |
| 20260902230741 | 59 | 189 | 5.0 | 6.0 | 0.12 | 0.11 | 0.11 | 92 | 1004.6 |
| 20260902230240 | 59 | 197 | 6.0 | 7.0 | 0.07 | 0.10 | 0.10 | 92 | 1004.3 |
| 20260902225735 | 59 | 193 | 11.0 | 11.0 | 0.14 | 0.10 | 0.10 | 92 | 1004.3 |
| 20260902225230 | 59 | 176 | 3.0 | 5.0 | 0.12 | 0.09 | 0.09 | 92 | 1004.4 |
| 20260902224729 | 59 | 204 | 3.0 | 3.0 | 0.05 | 0.08 | 0.08 | 91 | 1004.3 |
| 20260902224224 | 59 | 171 | 4.0 | 5.0 | 0.07 | 0.07 | 0.07 | 92 | 1004.2 |
| 20260902223721 | 59 | 174 | 7.0 | 8.0 | 0.05 | 0.06 | 0.06 | 91 | 1004.4 |
| 20260902223219 | 59 | 235 | 3.0 | 3.0 | 0.05 | 0.06 | 0.06 | 91 | 1004.2 |
| 20260902222719 | 59 | 173 | 7.0 | 9.0 | 0.07 | 0.05 | 0.05 | 91 | 1004.5 |